When you browse on this site, cookies collect data to enhance your experience and personalize the content and advertising you see.
Visit our Privacy Policy to learn more. By continuing to use the site, you agree to this use of cookies and data.
  • In Lithuania
  • List of Countries
  • For 7 days
  • Water Temperature
  • Satellite Maps
  • Weather Map
  • Weather Widgets
  • user-avatar
    Login

    Hourly Weather Satif

    Today, 27 May, Monday

    Time Temperature Precipitation Wind Pressure Humidity
    00:00 +8°C° 0 mm 4 mps 668 mmHg 90%
    01:00 +8°C° 0 mm 4 mps 668 mmHg 89%
    02:00 +8°C° 0 mm 4 mps 668 mmHg 88%
    03:00 +8°C° 0 mm 4 mps 668 mmHg 88%
    04:00 +8°C° 0 mm 4 mps 668 mmHg 86%
    05:00 +10°C° 0 mm 4 mps 668 mmHg 85%
    06:00 +10°C° 0 mm 4 mps 669 mmHg 84%
    07:00 +11°C° 0 mm 4 mps 669 mmHg 77%
    08:00 +12°C° 0 mm 5 mps 670 mmHg 71%
    09:00 +14°C° 0 mm 5 mps 670 mmHg 64%
    10:00 +14°C° 0 mm 5 mps 670 mmHg 62%
    11:00 +15°C° 0 mm 5 mps 670 mmHg 59%
    12:00 +16°C° 0 mm 5 mps 671 mmHg 56%
    13:00 +17°C° 0 mm 4 mps 671 mmHg 54%
    14:00 +17°C° 0 mm 4 mps 670 mmHg 53%
    15:00 +17°C° 0 mm 4 mps 670 mmHg 52%
    16:00 +17°C° 0 mm 3 mps 670 mmHg 54%
    17:00 +17°C° 0 mm 3 mps 670 mmHg 55%
    18:00 +16°C° 0 mm 2 mps 670 mmHg 57%
    19:00 +15°C° 0 mm 2 mps 670 mmHg 63%
    20:00 +14°C° 0 mm 1 mps 670 mmHg 69%
    21:00 +12°C° 0 mm 0 mps 670 mmHg 75%
    22:00 +13°C° 0 mm 1 mps 670 mmHg 75%
    23:00 +12°C° 0 mm 1 mps 670 mmHg 75%

    Tomorrow, 28 May, Tuesday

    Time Temperature Precipitation Wind Pressure Humidity
    00:00 +12°C° 0 mm 1 mps 670 mmHg 74%
    01:00 +12°C° 0 mm 1 mps 670 mmHg 75%
    02:00 +12°C° 0 mm 1 mps 669 mmHg 75%
    03:00 +11°C° 0 mm 1 mps 669 mmHg 75%
    04:00 +13°C° 0 mm 1 mps 669 mmHg 70%
    05:00 +14°C° 0 mm 1 mps 670 mmHg 66%
    06:00 +15°C° 0 mm 2 mps 670 mmHg 61%
    07:00 +17°C° 0 mm 3 mps 671 mmHg 54%
    08:00 +19°C° 0 mm 4 mps 672 mmHg 48%
    09:00 +21°C° 0 mm 5 mps 673 mmHg 41%
    10:00 +21°C° 0 mm 5 mps 673 mmHg 40%
    11:00 +22°C° 0 mm 4 mps 673 mmHg 38%
    12:00 +23°C° 0 mm 4 mps 673 mmHg 37%
    13:00 +22°C° 0 mm 4 mps 672 mmHg 38%
    14:00 +22°C° 0 mm 3 mps 672 mmHg 40%
    15:00 +22°C° 0 mm 3 mps 672 mmHg 41%
    16:00 +21°C° 0 mm 2 mps 672 mmHg 46%
    17:00 +20°C° 0 mm 2 mps 672 mmHg 52%
    18:00 +20°C° 0 mm 1 mps 671 mmHg 57%
    19:00 +19°C° 0 mm 1 mps 671 mmHg 62%
    20:00 +18°C° 0 mm 1 mps 672 mmHg 67%
    21:00 +15°C° 0 mm 0 mps 672 mmHg 71%
    22:00 +14°C° 0 mm 0 mps 672 mmHg 72%
    23:00 +14°C° 0 mm 0 mps 671 mmHg 73%

    Day after tomorrow, 29 May, Wednesday

    Time Temperature Precipitation Wind Pressure Humidity
    00:00 +14°C° 0 mm 0 mps 671 mmHg 73%
    01:00 +14°C° 0 mm 1 mps 671 mmHg 73%
    02:00 +14°C° 0 mm 1 mps 671 mmHg 73%
    03:00 +14°C° 0 mm 2 mps 671 mmHg 74%
    04:00 +14°C° 0 mm 2 mps 672 mmHg 75%
    05:00 +14°C° 0 mm 2 mps 672 mmHg 76%
    06:00 +14°C° 0 mm 2 mps 672 mmHg 78%
    07:00 +15°C° 0 mm 2 mps 673 mmHg 73%
    08:00 +16°C° 0 mm 2 mps 673 mmHg 69%
    09:00 +18°C° 0 mm 2 mps 674 mmHg 65%
    10:00 +19°C° 0 mm 2 mps 674 mmHg 60%
    11:00 +20°C° 0 mm 2 mps 674 mmHg 55%
    12:00 +21°C° 0 mm 2 mps 675 mmHg 50%
    13:00 +21°C° 0.1 mm 3 mps 674 mmHg 52%
    14:00 +21°C° 0.1 mm 4 mps 674 mmHg 55%
    15:00 +21°C° 0.1 mm 5 mps 674 mmHg 58%
    16:00 +19°C° 0 mm 5 mps 674 mmHg 63%
    17:00 +18°C° 0 mm 4 mps 674 mmHg 69%
    18:00 +15°C° 0 mm 4 mps 673 mmHg 75%
    19:00 +15°C° 0 mm 4 mps 674 mmHg 77%
    20:00 +14°C° 0 mm 3 mps 674 mmHg 79%
    21:00 +13°C° 0 mm 3 mps 675 mmHg 81%
    22:00 +14°C° 0 mm 2 mps 675 mmHg 83%
    23:00 +13°C° 0 mm 2 mps 675 mmHg 85%

    30 May, Thursday

    Time Temperature Precipitation Wind Pressure Humidity
    00:00 +13°C° 0 mm 2 mps 675 mmHg 87%
    01:00 +12°C° 0 mm 2 mps 675 mmHg 88%
    02:00 +12°C° 0 mm 2 mps 674 mmHg 89%
    03:00 +10°C° 0 mm 2 mps 674 mmHg 91%
    04:00 +10°C° 0 mm 2 mps 674 mmHg 87%
    05:00 +12°C° 0 mm 2 mps 675 mmHg 83%
    06:00 +12°C° 0 mm 2 mps 675 mmHg 78%
    07:00 +13°C° 0 mm 2 mps 676 mmHg 68%
    08:00 +15°C° 0 mm 2 mps 676 mmHg 58%
    09:00 +17°C° 0 mm 2 mps 677 mmHg 48%
    10:00 +18°C° 0 mm 3 mps 677 mmHg 44%
    11:00 +19°C° 0 mm 3 mps 677 mmHg 39%
    12:00 +20°C° 0 mm 3 mps 677 mmHg 35%
    13:00 +20°C° 0 mm 3 mps 677 mmHg 36%
    14:00 +21°C° 0 mm 4 mps 677 mmHg 37%
    15:00 +21°C° 0 mm 4 mps 677 mmHg 39%
    16:00 +20°C° 0 mm 4 mps 677 mmHg 43%
    17:00 +19°C° 0 mm 4 mps 677 mmHg 48%
    18:00 +18°C° 0 mm 4 mps 677 mmHg 53%
    19:00 +16°C° 0 mm 3 mps 677 mmHg 59%
    20:00 +14°C° 0 mm 3 mps 677 mmHg 65%
    21:00 +14°C° 0 mm 2 mps 677 mmHg 70%
    22:00 +14°C° 0 mm 1 mps 676 mmHg 71%
    23:00 +13°C° 0 mm 1 mps 676 mmHg 71%

    31 May, Friday

    Time Temperature Precipitation Wind Pressure Humidity
    00:00 +13°C° 0 mm 1 mps 676 mmHg 72%
    01:00 +12°C° 0 mm 1 mps 675 mmHg 72%
    02:00 +12°C° 0 mm 1 mps 675 mmHg 71%
    03:00 +12°C° 0 mm 1 mps 675 mmHg 71%
    04:00 +12°C° 0 mm 1 mps 676 mmHg 67%
    05:00 +13°C° 0 mm 1 mps 676 mmHg 64%
    06:00 +14°C° 0 mm 1 mps 677 mmHg 60%
    07:00 +15°C° 0 mm 1 mps 677 mmHg 55%
    08:00 +18°C° 0 mm 1 mps 677 mmHg 50%
    09:00 +19°C° 0 mm 1 mps 678 mmHg 45%
    10:00 +19°C° 0 mm 2 mps 678 mmHg 43%
    11:00 +20°C° 0 mm 3 mps 678 mmHg 41%
    12:00 +22°C° 0 mm 4 mps 678 mmHg 38%
    13:00 +22°C° 0 mm 4 mps 678 mmHg 39%
    14:00 +22°C° 0 mm 5 mps 677 mmHg 39%
    15:00 +22°C° 0 mm 5 mps 677 mmHg 40%
    16:00 +21°C° 0 mm 5 mps 677 mmHg 44%
    17:00 +20°C° 0 mm 4 mps 676 mmHg 47%
    18:00 +19°C° 0 mm 4 mps 676 mmHg 51%
    19:00 +17°C° 0 mm 3 mps 676 mmHg 57%
    20:00 +16°C° 0 mm 3 mps 676 mmHg 63%
    21:00 +15°C° 0 mm 2 mps 676 mmHg 70%
    22:00 +14°C° 0 mm 1 mps 676 mmHg 71%
    23:00 +14°C° 0 mm 1 mps 675 mmHg 73%

    1 June, Saturday

    Time Temperature Precipitation Wind Pressure Humidity
    00:00 +13°C° 0 mm 1 mps 675 mmHg 75%
    01:00 +13°C° 0 mm 1 mps 675 mmHg 73%
    02:00 +12°C° 0 mm 1 mps 675 mmHg 71%
    03:00 +11°C° 0 mm 0 mps 674 mmHg 69%
    04:00 +13°C° 0 mm 1 mps 675 mmHg 62%
    05:00 +14°C° 0 mm 1 mps 675 mmHg 55%
    06:00 +15°C° 0 mm 1 mps 675 mmHg 48%
    07:00 +16°C° 0 mm 1 mps 676 mmHg 47%
    08:00 +18°C° 0 mm 2 mps 676 mmHg 45%
    09:00 +19°C° 0 mm 3 mps 677 mmHg 43%
    10:00 +20°C° 0 mm 3 mps 677 mmHg 42%
    11:00 +21°C° 0 mm 4 mps 677 mmHg 40%
    12:00 +22°C° 0 mm 5 mps 677 mmHg 39%
    13:00 +22°C° 0 mm 5 mps 677 mmHg 38%
    14:00 +23°C° 0 mm 5 mps 676 mmHg 38%
    15:00 +23°C° 0 mm 6 mps 676 mmHg 37%
    16:00 +21°C° 0 mm 6 mps 676 mmHg 39%
    17:00 +20°C° 0 mm 5 mps 675 mmHg 40%
    18:00 +19°C° 0 mm 5 mps 675 mmHg 42%
    19:00 +18°C° 0 mm 4 mps 675 mmHg 47%
    20:00 +17°C° 0 mm 3 mps 675 mmHg 52%
    21:00 +15°C° 0 mm 2 mps 675 mmHg 57%
    22:00 +15°C° 0 mm 2 mps 674 mmHg 58%
    23:00 +14°C° 0 mm 2 mps 674 mmHg 59%
    Show more